Погода Атырау

Погода Атырау : погода сейчас, прогноз погоды и архив. Всё, что Вы хотите узнать о погоде Атырау!

Хотите узнать прогноз погоды в Атырау? Тогда Вам сюда: Погода в Атырау

Поиск расширенной информации на нашем сайте:

Другие новости

Новости СМИ2

Главная страница сайта

Новости сайта

03.07.2017

Напоминаем, что на нашем специализированном сайте Метеоцентр.Азия вы можете получить высокодетализированные автоматические прогнозы погоды по пунктам России, СНГ и мира в авиационном формате (включающие направление и скорость ветра, видимость, явления погоды, количество и форму облачности, нижнюю и верхнюю границу облачности).


Погода Атырау - сегодня

Время (UTC), дата Ветер
(°,м/с) 
Видим.   Явления Облачность Т
(°С)
Тd
(°С)
f(%) Тe
(°С)
Pmin
(гПа)
dP
(гПа)
Po
(мм)
O2
(г/м3)
Тmin Tmax R s Состояние
почвы
18 16.10.17 280 (З) 4000 м  слаб. ливневой дождь  10/10 300 м кучево-дожд. 
[Cb cap]
+8.2 +5.9 85 +7  1003.1  1.7  754  294    +12.4     
21 16.10.17 290 (З) 4000 м  ливневой дождь  10/10 300 м кучево-дожд. 
[Cb cap]
+0.8 +4.7 100 -2    1.8  755  303           
00 17.10.17 260 (З) 10 км  {ливн. осадки}  10/10 300 м кучево-дожд. 
[Cb cap]
+5.7 +4.1 89 +5  1005  0.1  755  298           
03 17.10.17 300 (СЗ) 10 км  слаб. ливневой дождь  10/10 300 м кучево-дожд. 
[Cb cap]
+5.6 +4.2 91 +6  1005.5  0.5  756  298  +5.2         
06 17.10.17 300 (СЗ) 20000 м  в посл. час ливневой дождь  9/9 300 м 
[Frnb]
+7.2 +4.1 81 +6  1006.7  1.2  757  296  +5.2       
09 17.10.17 300 (СЗ) 20000 м  слаб. ливневой дождь  10/10 300 м 
[Frnb]
+8 +4.8 80 +8  1006.6  -0.1  757  295           
12 17.10.17 330 (СЗ) 20000 м  {ливн. осадки}  9/9 300 м 
[Frnb]
+8.7 +5.3 79 +8  1007.2  0.6  757  295           
15 17.10.17 300 (СЗ) 20000 м  слаб. ливневой дождь  10/10 300 м 
[Frnb]
+8.3 +5.5 83 +7  1008.4  1.2  758  296    +9  0.5     
18 17.10.17 280 (З) 20000 м  слаб. ливневой дождь  10/10 600 м кучево-дожд. 
[Cb cap]
+7.3 +5.5 88 +7  1008.9  0.5  758  297    +0.9  0.5     
21 17.10.17 310 (СЗ) 20000 м  {ливн. осадки}  10/10 600 м кучево-дожд. 
[Cb cap]
+8.5 +6.5 87 +7  1009.4  0.5  759  295           
00 18.10.17 320 (СЗ) 20000 м  слаб. ливневой дождь  10/10 600 м кучево-дожд. 
[Cb cap]
+8.2 +6.7 90 +7  1010.8  1.4  760  296           
03 18.10.17 320 (СЗ) 20000 м  слаб. ливневой дождь  10/10 600 м кучево-дожд. 
[Cb cap]
+7 +5.6 91 +6  1013.5  2.7  762  298  +6.8         
06 18.10.17 330 (СЗ) 20000 м  {ливн. осадки}  9/9 600 м 
[Sc]
+8.1 +5 81 +7  1016.6  3.1  764  298  +0.6       
09 18.10.17 320 (СЗ) 20000 м    8/8 600 м кучево-дожд. 
[Cb calv]
+11.8 +5.1 63 +11  1017.9  1.3  765  295           
12 18.10.17 310 (СЗ) 20000 м    10/10 600 м 
[Sc]
+11.8 +3.8 58 +12  1019.1  1.2  766  295           
15 18.10.17 280 (З) 20000 м    10/10 600 м 
[Sc]
+9.7 +4.3 69 +10  1020.8  1.7  767  298    +13       
18 18.10.17 280 (З) 20000 м    ясно 
+7.8 +3.6 75 +8  1021.9  1.1  768  300    +13  0.0     
21 18.10.17 270 (З) 20000 м    ясно 
+7.5 +5.3 86 +7  1021.5  -0.4  768  300           
00 19.10.17 250 (З) 20000 м    ясно 
+8.2 +6.2 87 +8  1021  -0.5  767  299           
03 19.10.17 260 (З) 20000 м    8/0 средняя 
[Ac As]
+8.7 +5.6 81 +8  1020.7  -0.3  767  299           
06 19.10.17 270 (З) 10 км    ясно 
+12.1 +7.4 73 +12  1021.2  0.5  768  295  +7         
09 19.10.17 230 (ЮЗ) 10 км    ясно 
+13.7 +8.1 69 +12  1020.6  -0.6  767  293           
12 19.10.17 250 (З) 10 км    ясно 
+13.8 +8.9 72 +13  1019.8  -0.8  767  292           
15 19.10.17 240 (ЮЗ) 10 км    ясно 
+11.1 +9.3 89 +11  1019.8  767  295    +14.5       
18 19.10.17 240 (ЮЗ) 10 км    ясно 
+11.3 +8.9 85 +11  1019.5  -0.3  766  295    +14.5       
Время (UTC), дата Ветер
(°,м/с) 
Видим.   Явления Облачность Т
(°С)
Тd
(°С)
f(%) Тe
(°С)
Pmin
(гПа)
dP
(гПа)
Po
(мм)
O2
(г/м3)
Тmin Tmax R s Состояние
почвы

Для получения пояснительной информации подведите курсор к названию столбца.

ПОГОДА Атырау - архив

Всё, что Вы хотите узнать о погоде Атырау - удобно и подробно!

Выберите нужную дату (начиная с 1 января 2015* года) и нажмите кнопку "Найти".
Будут отображены архивные сводки погоды по пункту Атырау, начиная с указанной даты.


Отображать данные в формате CSV (для использования в таблицах Excel)


Внимание! Наш архив погоды предназначен исключительно для личного некоммерческого использования в познавательных целях. Если Вам необходимы официальные справки о состоянии погоды (для производственных, юридических, коммерческих и т.п. целей), обращайтесь в органы Росгидромета.

*Примечание: данная дата относится к архиву по метеостанциям СССР (Россия, СНГ, Балтия).
Архив по метеостанциям Зарубежной Европы и Азии (кроме Китая) хранится 10 дней, по другим регионам земного шара (Китай, Африка, Америка, Австралия, Океания) - 1 день.

Атырау - район местоположения метеостанции


Название, широта, долгота, высота метеостанции:
Атырау (город) 47.1°ш. 51.7°д. -23 м над ур. моря [Казахстан]

Дополнительная информация

В oтличие oт бoльшинства пoгoдных сайтoв мы публикуем пoдрoбную метеoинфoрмацию в детальнoм прoфессиoнальнoм фoрмате.

Характеристики температуры и влажнoсти вoздуха измеряются на высoте 2 м в тени вдали oт зданий и деревьев.
Скoрoсть ветра измеряется на высoте 10 м (на урoвне рoста челoвека скoрoсть ветра ниже в 1.5-2 раза). Если метеoстанция нахoдится в гoрoде или в лесу, тo скoрoсть ветра занижена на 2-4 м/с пo сравнению с oткрытым местoм. Скoрoсть ветра над акватoриями крупных рек и oзёр, а также на вершинах хoлмoв на 2-5 м/с выше, чем в oбычных услoвиях.
Атмoсфернoе давление в разных тoчках местнoсти мoжет значительнo oтличаться oт давления на метеoстанции, в зависимoсти oт услoвий рельефа (при пoдъёме на 10 м давление пoнижается примернo на 1 мм рт.ст.).